User: anonymous   Login
Location: Fontevrault
(47.1823°N, 0.0493°E)
Time: 19:47:28
(UTC+00:00)
Language:

UCLSAT - Orbit

View from above orbital plane
View from above orbital plane
View from above satellite
View from above satellite

Ground track
Ground track

The orbit data is extracted from the following two-line orbital elements,

1 42765U 17036A   22015.85566561  .00007823  00000-0  30320-3 0  9994
2 42765  97.2224  63.5092 0011441 138.8979 221.3124 15.26347145254557
Epoch (UTC): 15 January 2022 20:32:09
Eccentricity: 0.0011441
inclination: 97.2224°
perigee height: 479 km
apogee height: 494 km
right ascension of ascending node: 63.5092°
argument of perigee: 138.8979°
revolutions per day: 15.26347145
mean anomaly at epoch: 221.3124°
orbit number at epoch: 25455

The dashed part of the orbit path shows where the satellite is in the earth's shadow,  

DLR